SHT17Y EGPE-EGLL

Flight info

Callsign SHT17Y
Flight time 1h 10m
Altitude 36000
Route GUSSI DCT NESDI DCT ERSON DCT AKOMU/N0447F370 DCT VAMEB DCT NUGRA
Aircraft A21N/M-SDE2E3FGHIRWXY/LB1

Departure

Time 2026-04-30 10:11
Airport Inverness Airport (EGPE)

Arrival

Time 2026-04-30 11:21
Airport London Heathrow Airport (EGLL)
Time Latitude Longitude Altitude Speed Heading
2026-04-30 09:37 57.54044 -4.06230 41 ft 0 kts 276°
2026-04-30 09:58 57.54042 -4.06205 41 ft 4 kts 265°
2026-04-30 09:58 57.54051 -4.06163 37 ft 4 kts 223°
2026-04-30 09:58 57.54073 -4.06141 37 ft 4 kts 191°
2026-04-30 09:58 57.54088 -4.06137 41 ft 1 kts 185°
2026-04-30 10:03 57.54075 -4.06139 41 ft 3 kts 185°
2026-04-30 10:04 57.54044 -4.06144 41 ft 5 kts 185°
2026-04-30 10:04 57.54001 -4.06151 40 ft 7 kts 185°
2026-04-30 10:04 57.53946 -4.06159 40 ft 9 kts 185°
2026-04-30 10:04 57.53880 -4.06172 39 ft 7 kts 186°
2026-04-30 10:05 57.53826 -4.06181 39 ft 9 kts 185°
2026-04-30 10:05 57.53768 -4.06132 38 ft 11 kts 127°
2026-04-30 10:05 57.53724 -4.06007 38 ft 13 kts 114°
2026-04-30 10:05 57.53747 -4.05850 38 ft 15 kts 51°
2026-04-30 10:06 57.53818 -4.05693 40 ft 17 kts 50°
2026-04-30 10:06 57.53898 -4.05518 41 ft 19 kts 49°
2026-04-30 10:06 57.53987 -4.05327 40 ft 20 kts 49°
2026-04-30 10:06 57.54081 -4.05123 39 ft 21 kts 49°
2026-04-30 10:07 57.54183 -4.04904 40 ft 23 kts 49°
2026-04-30 10:07 57.54291 -4.04668 43 ft 25 kts 49°
2026-04-30 10:07 57.54406 -4.04418 43 ft 27 kts 49°
2026-04-30 10:07 57.54525 -4.04161 41 ft 23 kts 49°
2026-04-30 10:08 57.54622 -4.03952 41 ft 20 kts 50°
2026-04-30 10:08 57.54694 -4.03793 42 ft 13 kts 50°
2026-04-30 10:08 57.54746 -4.03680 43 ft 9 kts 49°
2026-04-30 10:08 57.54781 -4.03624 44 ft 5 kts 26°
2026-04-30 10:09 57.54788 -4.03618 45 ft 1 kts 31°
2026-04-30 10:09 57.54784 -4.03591 43 ft 4 kts 153°
2026-04-30 10:09 57.54767 -4.03625 43 ft 2 kts 243°
2026-04-30 10:09 57.54760 -4.03643 44 ft 0 kts 230°
2026-04-30 10:10 57.54731 -4.03708 43 ft 34 kts 229°
2026-04-30 10:10 57.54368 -4.04496 43 ft 121 kts 229°
2026-04-30 10:10 57.53684 -4.05963 239 ft 165 kts 228°
2026-04-30 10:11 57.52905 -4.07649 935 ft 180 kts 228°
2026-04-30 10:11 57.52076 -4.09466 1801 ft 186 kts 227°
2026-04-30 10:11 57.51108 -4.11068 2779 ft 188 kts 211°
2026-04-30 10:11 57.49909 -4.12020 3723 ft 190 kts 194°
2026-04-30 10:12 57.48598 -4.12245 4621 ft 196 kts 181°
2026-04-30 10:12 57.47222 -4.12118 5482 ft 201 kts 178°
2026-04-30 10:12 57.45735 -4.11974 6021 ft 228 kts 178°
2026-04-30 10:12 57.44069 -4.11828 6628 ft 249 kts 179°
2026-04-30 10:13 57.42310 -4.11754 7482 ft 255 kts 179°
2026-04-30 10:13 57.40523 -4.11739 8499 ft 258 kts 180°
2026-04-30 10:13 57.38726 -4.11761 9572 ft 259 kts 180°
2026-04-30 10:13 57.36922 -4.11805 10605 ft 263 kts 180°
2026-04-30 10:14 57.34998 -4.11865 10949 ft 290 kts 180°
2026-04-30 10:14 57.32887 -4.11944 11251 ft 315 kts 180°
2026-04-30 10:14 57.28285 -4.12138 12276 ft 344 kts 180°
2026-04-30 10:15 57.25873 -4.12242 13056 ft 349 kts 180°
2026-04-30 10:15 57.23429 -4.12351 13855 ft 354 kts 180°
2026-04-30 10:15 57.20956 -4.12545 14548 ft 358 kts 184°
2026-04-30 10:15 57.18473 -4.13103 15238 ft 361 kts 186°
2026-04-30 10:16 57.15970 -4.13737 15905 ft 365 kts 187°
2026-04-30 10:16 57.13439 -4.14380 16596 ft 369 kts 187°
2026-04-30 10:16 57.10922 -4.15015 17256 ft 371 kts 187°
2026-04-30 10:17 57.05758 -4.16309 18579 ft 377 kts 187°
2026-04-30 10:17 57.00502 -4.17594 19641 ft 385 kts 187°
2026-04-30 10:17 56.97830 -4.18233 20168 ft 389 kts 187°
2026-04-30 10:18 56.95132 -4.18882 20703 ft 392 kts 187°
2026-04-30 10:18 56.92419 -4.19543 21235 ft 395 kts 187°
2026-04-30 10:18 56.89682 -4.20216 21776 ft 398 kts 187°
2026-04-30 10:19 56.84181 -4.21569 22869 ft 405 kts 187°
2026-04-30 10:19 56.81374 -4.22247 23429 ft 409 kts 187°
2026-04-30 10:19 56.78544 -4.22928 23963 ft 412 kts 187°
2026-04-30 10:19 56.75690 -4.23620 24434 ft 415 kts 187°
2026-04-30 10:20 56.72816 -4.24316 24894 ft 418 kts 187°
2026-04-30 10:20 56.67013 -4.25712 25844 ft 423 kts 187°
2026-04-30 10:20 56.64088 -4.26421 26309 ft 425 kts 187°
2026-04-30 10:21 56.61148 -4.27133 26752 ft 427 kts 187°
2026-04-30 10:21 56.58195 -4.27838 27187 ft 429 kts 187°
2026-04-30 10:21 56.55273 -4.28536 27722 ft 428 kts 187°
2026-04-30 10:21 56.52332 -4.29240 28311 ft 425 kts 187°
2026-04-30 10:22 56.49403 -4.29891 28891 ft 423 kts 185°
2026-04-30 10:22 56.46465 -4.29923 29411 ft 422 kts 175°
2026-04-30 10:22 56.43579 -4.28977 29939 ft 422 kts 165°
2026-04-30 10:22 56.40794 -4.27295 30461 ft 421 kts 161°
2026-04-30 10:23 56.38047 -4.25480 30930 ft 420 kts 161°
2026-04-30 10:23 56.35309 -4.23696 31398 ft 417 kts 161°
2026-04-30 10:23 56.32577 -4.21944 31847 ft 416 kts 161°
2026-04-30 10:23 56.29888 -4.20227 32302 ft 415 kts 162°
2026-04-30 10:24 56.27174 -4.18506 32748 ft 413 kts 161°
2026-04-30 10:24 56.24465 -4.16800 33190 ft 412 kts 162°
2026-04-30 10:24 56.21758 -4.15100 33553 ft 412 kts 161°
2026-04-30 10:24 56.19050 -4.13404 33920 ft 412 kts 161°
2026-04-30 10:25 56.16344 -4.11711 34300 ft 411 kts 161°
2026-04-30 10:25 56.13648 -4.10024 34642 ft 410 kts 161°
2026-04-30 10:25 56.10953 -4.08349 34939 ft 410 kts 161°
2026-04-30 10:25 56.08300 -4.06697 35227 ft 409 kts 161°
2026-04-30 10:26 56.05608 -4.05020 35514 ft 409 kts 161°
2026-04-30 10:26 56.02927 -4.03350 35789 ft 408 kts 161°
2026-04-30 10:26 56.00247 -4.01681 36055 ft 408 kts 161°
2026-04-30 10:26 55.97563 -4.00014 36320 ft 408 kts 162°
2026-04-30 10:27 55.92196 -3.96682 36388 ft 408 kts 162°
2026-04-30 10:27 55.86827 -3.93357 36376 ft 411 kts 162°
2026-04-30 10:28 55.81454 -3.90049 36366 ft 411 kts 162°
2026-04-30 10:28 55.76051 -3.86716 36360 ft 411 kts 162°
2026-04-30 10:29 55.70643 -3.83411 36349 ft 411 kts 162°
2026-04-30 10:29 55.65247 -3.80114 36359 ft 410 kts 162°
2026-04-30 10:30 55.59889 -3.76859 36348 ft 410 kts 162°
2026-04-30 10:30 55.54497 -3.73585 36332 ft 410 kts 162°
2026-04-30 10:31 55.49107 -3.70304 36332 ft 410 kts 162°
2026-04-30 10:31 55.43717 -3.67043 36331 ft 409 kts 162°
2026-04-30 10:32 55.38365 -3.63815 36338 ft 409 kts 162°
2026-04-30 10:32 55.32975 -3.60584 36335 ft 409 kts 162°
2026-04-30 10:33 55.27585 -3.57362 36341 ft 409 kts 162°
2026-04-30 10:33 55.22191 -3.54146 36339 ft 409 kts 162°
2026-04-30 10:34 55.16778 -3.50924 36346 ft 412 kts 162°
2026-04-30 10:34 55.11387 -3.47728 36349 ft 412 kts 162°
2026-04-30 10:35 55.05958 -3.44508 36344 ft 412 kts 162°
2026-04-30 10:35 55.00527 -3.41294 36338 ft 412 kts 162°
2026-04-30 10:36 54.95091 -3.38098 36342 ft 412 kts 162°
2026-04-30 10:36 54.89654 -3.34900 36328 ft 412 kts 161°
2026-04-30 10:37 54.84254 -3.31739 36331 ft 412 kts 162°
2026-04-30 10:37 54.78810 -3.28567 36318 ft 412 kts 162°
2026-04-30 10:38 54.73369 -3.25397 36300 ft 412 kts 162°
2026-04-30 10:38 54.67927 -3.22237 36317 ft 412 kts 161°
2026-04-30 10:39 54.62522 -3.19117 36317 ft 412 kts 161°
2026-04-30 10:39 54.57083 -3.15976 36316 ft 413 kts 161°
2026-04-30 10:40 54.51637 -3.12837 36307 ft 413 kts 161°
2026-04-30 10:40 54.46191 -3.09707 36310 ft 412 kts 161°
2026-04-30 10:41 54.40750 -3.06604 36293 ft 412 kts 161°
2026-04-30 10:41 54.35343 -3.03540 36296 ft 412 kts 161°
2026-04-30 10:42 54.29909 -3.00442 36299 ft 412 kts 161°
2026-04-30 10:42 54.24469 -2.97357 36299 ft 412 kts 161°
2026-04-30 10:43 54.19034 -2.94282 36299 ft 411 kts 161°
2026-04-30 10:43 54.13724 -2.90740 36294 ft 409 kts 156°
2026-04-30 10:44 54.08525 -2.86938 36289 ft 410 kts 156°
2026-04-30 10:44 54.03286 -2.83127 36275 ft 410 kts 156°
2026-04-30 10:45 53.97959 -2.79682 36266 ft 410 kts 162°
2026-04-30 10:45 53.92519 -2.76813 36280 ft 409 kts 162°
2026-04-30 10:46 53.87082 -2.73955 36269 ft 409 kts 162°
2026-04-30 10:46 53.81686 -2.71107 36287 ft 409 kts 162°
2026-04-30 10:47 53.76252 -2.68247 36274 ft 409 kts 162°
2026-04-30 10:47 53.70819 -2.65393 36292 ft 408 kts 162°
2026-04-30 10:48 53.65422 -2.62575 36279 ft 405 kts 162°
2026-04-30 10:48 53.60029 -2.59771 36275 ft 405 kts 162°
2026-04-30 10:49 53.54639 -2.56941 36273 ft 406 kts 162°
2026-04-30 10:49 53.49283 -2.54158 36285 ft 406 kts 162°
2026-04-30 10:50 53.43890 -2.51367 36300 ft 405 kts 162°
2026-04-30 10:50 53.38499 -2.48577 36318 ft 406 kts 162°
2026-04-30 10:51 53.33104 -2.45794 36315 ft 406 kts 162°
2026-04-30 10:51 53.27742 -2.43038 36309 ft 406 kts 162°
2026-04-30 10:52 53.22343 -2.40271 36318 ft 405 kts 162°
2026-04-30 10:52 53.16950 -2.37520 36301 ft 405 kts 162°
2026-04-30 10:53 53.11552 -2.34770 36287 ft 406 kts 162°
2026-04-30 10:53 53.06148 -2.32022 36270 ft 406 kts 162°
2026-04-30 10:54 53.00964 -2.28408 36273 ft 405 kts 149°
2026-04-30 10:54 52.96237 -2.23436 36278 ft 405 kts 147°
2026-04-30 10:55 52.91490 -2.18412 36283 ft 405 kts 148°
2026-04-30 10:55 52.86742 -2.13445 36266 ft 400 kts 148°
2026-04-30 10:56 52.82036 -2.08540 36264 ft 405 kts 148°
2026-04-30 10:56 52.77271 -2.03590 36052 ft 400 kts 148°
2026-04-30 10:57 52.74947 -2.01173 35297 ft 401 kts 148°
2026-04-30 10:57 52.72582 -1.98723 34645 ft 401 kts 148°
2026-04-30 10:57 52.70216 -1.96276 33990 ft 401 kts 148°
2026-04-30 10:57 52.67856 -1.93836 33304 ft 400 kts 148°
2026-04-30 10:58 52.65507 -1.91408 32665 ft 398 kts 148°
2026-04-30 10:58 52.63168 -1.88991 32014 ft 396 kts 148°
2026-04-30 10:58 52.60832 -1.86586 31395 ft 395 kts 148°
2026-04-30 10:58 52.58506 -1.84193 30776 ft 394 kts 148°
2026-04-30 10:59 52.56185 -1.81812 30103 ft 393 kts 148°
2026-04-30 10:59 52.53891 -1.79462 29315 ft 394 kts 148°
2026-04-30 10:59 52.51568 -1.77080 28532 ft 394 kts 148°
2026-04-30 10:59 52.49246 -1.74700 27836 ft 392 kts 148°
2026-04-30 11:00 52.46940 -1.72343 27194 ft 389 kts 148°
2026-04-30 11:00 52.44651 -1.70007 26583 ft 386 kts 148°
2026-04-30 11:00 52.42378 -1.67689 25961 ft 384 kts 148°
2026-04-30 11:00 52.40116 -1.65386 25371 ft 381 kts 148°
2026-04-30 11:01 52.37870 -1.63101 24810 ft 379 kts 147°
2026-04-30 11:01 52.35664 -1.60859 24229 ft 377 kts 147°
2026-04-30 11:01 52.33439 -1.58603 23602 ft 375 kts 147°
2026-04-30 11:01 52.31232 -1.56369 23022 ft 372 kts 148°
2026-04-30 11:02 52.29042 -1.54149 22428 ft 369 kts 148°
2026-04-30 11:02 52.26869 -1.51951 21821 ft 366 kts 148°
2026-04-30 11:02 52.24706 -1.49772 21213 ft 365 kts 148°
2026-04-30 11:02 52.22556 -1.47595 20624 ft 363 kts 147°
2026-04-30 11:03 52.20536 -1.45166 20125 ft 360 kts 141°
2026-04-30 11:03 52.18632 -1.42531 19763 ft 358 kts 140°
2026-04-30 11:03 52.16751 -1.39877 19424 ft 357 kts 140°
2026-04-30 11:04 52.13036 -1.34645 18782 ft 354 kts 140°
2026-04-30 11:04 52.11171 -1.32041 18404 ft 352 kts 140°
2026-04-30 11:04 52.09317 -1.29456 18008 ft 351 kts 140°
2026-04-30 11:04 52.07465 -1.26882 17634 ft 348 kts 140°
2026-04-30 11:05 52.05628 -1.24338 17257 ft 346 kts 140°
2026-04-30 11:05 52.03803 -1.21809 16888 ft 344 kts 140°
2026-04-30 11:05 52.01989 -1.19294 16456 ft 342 kts 140°
2026-04-30 11:05 52.00182 -1.16789 16102 ft 341 kts 140°
2026-04-30 11:06 51.98382 -1.14303 15750 ft 339 kts 139°
2026-04-30 11:06 51.96589 -1.11828 15413 ft 338 kts 139°
2026-04-30 11:06 51.94802 -1.09361 15003 ft 336 kts 139°
2026-04-30 11:06 51.93027 -1.06914 14557 ft 333 kts 139°
2026-04-30 11:07 51.91313 -1.04557 14299 ft 321 kts 139°
2026-04-30 11:07 51.89657 -1.02275 14095 ft 305 kts 139°
2026-04-30 11:07 51.88082 -1.00112 13841 ft 290 kts 139°
2026-04-30 11:07 51.86584 -0.98057 13577 ft 275 kts 139°
2026-04-30 11:08 51.85244 -0.95961 13310 ft 262 kts 126°
2026-04-30 11:08 51.84353 -0.93474 13079 ft 251 kts 117°
2026-04-30 11:08 51.83603 -0.90960 12725 ft 246 kts 117°
2026-04-30 11:08 51.83116 -0.89311 12527 ft 244 kts 117°
2026-04-30 11:09 51.82382 -0.86857 12212 ft 241 kts 117°
2026-04-30 11:09 51.81647 -0.84428 11892 ft 239 kts 117°
2026-04-30 11:09 51.80686 -0.81260 11443 ft 236 kts 117°
2026-04-30 11:09 51.79962 -0.78891 11093 ft 234 kts 118°
2026-04-30 11:10 51.79241 -0.76531 10687 ft 234 kts 117°
2026-04-30 11:10 51.78756 -0.74941 10449 ft 233 kts 118°
2026-04-30 11:10 51.77923 -0.72724 10089 ft 231 kts 135°
2026-04-30 11:10 51.76566 -0.71385 9702 ft 233 kts 162°
2026-04-30 11:11 51.74965 -0.71180 9350 ft 236 kts 178°
2026-04-30 11:11 51.73327 -0.71367 8992 ft 236 kts 180°
2026-04-30 11:11 51.71687 -0.71593 8634 ft 236 kts 180°
2026-04-30 11:11 51.70054 -0.71826 8278 ft 236 kts 181°
2026-04-30 11:12 51.68418 -0.72061 7928 ft 236 kts 181°
2026-04-30 11:12 51.66784 -0.72291 7556 ft 236 kts 181°
2026-04-30 11:12 51.65144 -0.72520 7218 ft 237 kts 181°
2026-04-30 11:12 51.63502 -0.72747 6867 ft 237 kts 181°
2026-04-30 11:13 51.61858 -0.72972 6509 ft 237 kts 181°
2026-04-30 11:13 51.60216 -0.73190 6153 ft 237 kts 180°
2026-04-30 11:13 51.58595 -0.73692 5786 ft 243 kts 198°
2026-04-30 11:13 51.57218 -0.75334 5429 ft 253 kts 220°
2026-04-30 11:14 51.56092 -0.77527 5071 ft 254 kts 225°
2026-04-30 11:14 51.55038 -0.79748 4675 ft 252 kts 225°
2026-04-30 11:14 51.53984 -0.82001 4310 ft 252 kts 225°
2026-04-30 11:14 51.52909 -0.84213 3922 ft 249 kts 218°
2026-04-30 11:15 51.51511 -0.85654 3505 ft 233 kts 189°
2026-04-30 11:15 51.49969 -0.85803 3140 ft 218 kts 161°
2026-04-30 11:15 51.48699 -0.84684 2971 ft 203 kts 131°
2026-04-30 11:15 51.48017 -0.82777 2947 ft 197 kts 110°
2026-04-30 11:16 51.47752 -0.80705 2948 ft 183 kts 98°
2026-04-30 11:16 51.47684 -0.78700 2964 ft 179 kts 94°
2026-04-30 11:16 51.47661 -0.76704 2957 ft 178 kts 93°
2026-04-30 11:16 51.47661 -0.74715 2970 ft 179 kts 93°
2026-04-30 11:17 51.47667 -0.72718 2957 ft 178 kts 93°
2026-04-30 11:17 51.47674 -0.70857 2876 ft 157 kts 94°
2026-04-30 11:17 51.47679 -0.69173 2691 ft 150 kts 93°
2026-04-30 11:17 51.47685 -0.67555 2456 ft 140 kts 92°
2026-04-30 11:18 51.47690 -0.66057 2263 ft 132 kts 92°
2026-04-30 11:18 51.47701 -0.63084 1938 ft 133 kts 91°
2026-04-30 11:18 51.47706 -0.61649 1762 ft 121 kts 91°
2026-04-30 11:19 51.47710 -0.60325 1596 ft 118 kts 92°
2026-04-30 11:19 51.47715 -0.59012 1445 ft 118 kts 92°
2026-04-30 11:19 51.47720 -0.57700 1274 ft 118 kts 91°
2026-04-30 11:19 51.47725 -0.56392 1110 ft 118 kts 89°
2026-04-30 11:20 51.47729 -0.55103 940 ft 116 kts 90°
2026-04-30 11:20 51.47734 -0.53784 780 ft 122 kts 90°
2026-04-30 11:20 51.47738 -0.52454 618 ft 119 kts 91°
2026-04-30 11:20 51.47754 -0.51126 491 ft 118 kts 91°
2026-04-30 11:21 51.47755 -0.49824 302 ft 118 kts 93°
2026-04-30 11:21 51.47752 -0.48505 120 ft 117 kts 91°
2026-04-30 11:21 51.47755 -0.47279 93 ft 94 kts 91°
2026-04-30 11:21 51.47762 -0.46549 95 ft 29 kts 86°
2026-04-30 11:22 51.47757 -0.46271 92 ft 15 kts 99°
2026-04-30 11:22 51.47709 -0.46150 92 ft 10 kts 143°
2026-04-30 11:22 51.47671 -0.46105 92 ft 5 kts 144°
2026-04-30 11:22 51.47661 -0.46094 93 ft 0 kts 145°
2026-04-30 11:23 51.47654 -0.46087 95 ft 3 kts 145°
2026-04-30 11:23 51.47640 -0.46072 91 ft 2 kts 148°
2026-04-30 11:23 51.47597 -0.46105 93 ft 7 kts 263°
2026-04-30 11:24 51.47592 -0.46194 91 ft 9 kts 268°
2026-04-30 11:24 51.47593 -0.46312 92 ft 12 kts 271°
2026-04-30 11:24 51.47594 -0.46456 92 ft 14 kts 270°
2026-04-30 11:25 51.47591 -0.46807 92 ft 16 kts 262°
2026-04-30 11:25 51.47582 -0.46996 92 ft 18 kts 270°
2026-04-30 11:25 51.47582 -0.47434 95 ft 21 kts 270°
2026-04-30 11:26 51.47580 -0.47923 93 ft 21 kts 269°
2026-04-30 11:26 51.47579 -0.48127 95 ft 17 kts 270°
2026-04-30 11:26 51.47579 -0.48302 95 ft 13 kts 270°
2026-04-30 11:27 51.47577 -0.48411 93 ft 9 kts 258°
2026-04-30 11:27 51.47542 -0.48468 92 ft 8 kts 194°
2026-04-30 11:27 51.47497 -0.48518 92 ft 9 kts 244°
2026-04-30 11:27 51.47487 -0.48623 93 ft 10 kts 270°
2026-04-30 11:28 51.47487 -0.48803 93 ft 7 kts 270°
2026-04-30 11:28 51.47489 -0.48867 93 ft 6 kts 281°
2026-04-30 11:28 51.47495 -0.48927 94 ft 5 kts 252°
2026-04-30 11:29 51.47468 -0.48954 95 ft 4 kts 187°
2026-04-30 11:29 51.47444 -0.48954 93 ft 1 kts 179°
2026-04-30 11:29 51.47422 -0.48954 92 ft 0 kts 178°